Torna al catalogo

FENGYUN 1C DEB

AttivoSSO
NORAD 30920·DEBRIS·🇨🇳 China

Lanciato May 10, 1999 da Taiyuan Satellite Launch Center

Loading…

Prossimi Passaggi (prossime 24 ore)

TLE

AggiornatoSource: Space-Track

Epoca: Sep 14, 2026, 15:47 UTC

1 30920U 99025AZJ 26257.65829700  .00003668  00000-0  16572-2 0  9994
2 30920  98.9148  45.3060 0106390  30.4174 330.3117 14.19732587990059

Traccia FENGYUN 1C DEB in tempo reale con AllMySat

Download on the App Store